Temp
-7 -8 -9 -10 -11 -10 -11 -11 -11 -12 -12 -11 -11 -10 -10 -10 -9 -8 -8 -8 -7 -7 -6 -3 -2 -3 -4 -3 -2 -2 -2 -2 -2 -2 -2 -2 -2 -3 -3 -3 -2 -2 -2 -0
-8 -8 -10 -10 -11 -11 -11 -11 -11 -12 -11 -11 -11 -11 -11 -10 -9 -9 -9 -8 -7 -7 -6 -4 -4 -4 -4 -4 -3 -3 -3 -3 -3 -3 -3 -3 -3 -3 -3 -3 -3 -3 -3 -0
-8 -9 -10 -10 -11 -11 -11 -11 -12 -11 -11 -11 -11 -11 -10 -9 -9 -8 -8 -8 -7 -7 -6 -6 -5 -5 -5 -5 -4 -3 -3 -3 -3 -4 -3 -4 -3 -3 -3 -3 -3 -3 -2 -1
-8 -9 -10 -10 -10 -11 -11 -12 -12 -11 -11 -11 -11 -10 -10 -10 -10 -9 -8 -7 -7 -7 -7 -7 -6 -5 -4 -4 -4 -4 -3 -4 -3 -3 -3 -3 -3 -2 -3 -3 -3 -3 -2 -2
-9 -9 -10 -10 -10 -10 -11 -12 -12 -11 -11 -11 -11 -10 -10 -10 -9 -8 -8 -7 -7 -7 -6 -6 -5 -5 -4 -4 -4 -4 -4 -4 -4 -4 -4 -4 -4 -3 -3 -2 -2 -2 -3 -2
-9 -9 -10 -11 -10 -10 -11 -12 -12 -11 -11 -11 -11 -11 -10 -9 -9 -9 -8 -8 -8 -7 -7 -6 -6 -5 -5 -5 -5 -4 -4 -4 -4 -4 -4 -4 -3 -3 -3 -2 -1 -2 -3 -1
-9 -9 -10 -10 -11 -11 -11 -11 -11 -11 -10 -10 -10 -11 -11 -10 -9 -9 -8 -8 -8 -7 -7 -6 -6 -5 -5 -5 -4 -5 -5 -5 -5 -5 -5 -6 -3 -3 -3 -3 -2 -2 -2 -1
-9 -9 -10 -10 -11 -11 -11 -11 -11 -12 -11 -10 -10 -10 -10 -10 -10 -9 -9 -8 -8 -7 -6 -5 -5 -5 -4 -5 -5 -5 -5 -5 -5 -5 -5 -5 -3 -4 -3 -4 -1 -1 -2 -2
-9 -9 -10 -10 -10 -11 -11 -11 -11 -11 -11 -10 -10 -10 -10 -10 -9 -9 -9 -8 -7 -7 -7 -6 -6 -5 -5 -5 -5 -5 -4 -5 -6 -6 -6 -7 -3 -3 -3 -3 -3 -2 -2 -2
-9 -9 -9 -10 -11 -11 -11 -11 -11 -11 -11 -11 -10 -10 -10 -10 -10 -9 -9 -8 -7 -7 -7 -7 -7 -6 -6 -6 -5 -5 -5 -5 -6 -6 -6 -6 -4 -4 -3 -4 -3 -3 -3 -2
-9 -9 -9 -9 -10 -11 -11 -10 -11 -11 -10 -10 -10 -11 -11 -10 -10 -10 -9 -8 -8 -7 -7 -8 -8 -7 -7 -6 -6 -6 -6 -6 -6 -7 -7 -7 -5 -5 -4 -4 -3 -3 -3 -3
-9 -9 -9 -9 -10 -10 -10 -10 -11 -11 -11 -10 -10 -10 -11 -10 -10 -10 -10 -9 -9 -9 -8 -8 -8 -7 -7 -7 -6 -6 -6 -6 -6 -6 -6 -6 -5 -5 -6 -5 -5 -4 -4 -3
-9 -9 -10 -10 -10 -10 -10 -10 -10 -10 -10 -10 -10 -10 -10 -10 -10 -10 -10 -10 -9 -9 -9 -9 -8 -8 -8 -7 -7 -7 -7 -6 -7 -7 -6 -6 -6 -6 -6 -5 -5 -5 -4 -4
-10 -10 -10 -11 -10 -10 -10 -9 -9 -10 -10 -10 -9 -10 -10 -9 -10 -9 -10 -10 -10 -10 -9 -9 -9 -8 -8 -8 -8 -8 -7 -7 -6 -7 -7 -7 -6 -6 -5 -6 -5 -5 -5 -5
-10 -10 -11 -11 -10 -10 -10 -10 -10 -10 -10 -10 -9 -9 -9 -10 -10 -10 -10 -10 -10 -10 -10 -9 -9 -8 -8 -8 -8 -8 -7 -7 -7 -7 -7 -7 -7 -6 -6 -6 -6 -6 -6 -6
-10 -11 -11 -11 -11 -10 -10 -10 -10 -10 -10 -10 -10 -9 -9 -9 -9 -10 -10 -10 -10 -9 -10 -9 -8 -8 -9 -8 -8 -7 -8 -8 -7 -8 -8 -7 -7 -7 -7 -7 -6 -6 -7 -7
-10 -11 -11 -11 -10 -10 -10 -10 -10 -9 -10 -10 -10 -10 -9 -9 -9 -9 -10 -10 -10 -10 -10 -9 -9 -8 -9 -8 -8 -7 -7 -8 -8 -8 -8 -8 -7 -7 -7 -7 -7 -7 -6 -7
-10 -10 -10 -10 -10 -10 -10 -10 -10 -10 -10 -10 -11 -10 -9 -9 -9 -9 -10 -10 -10 -10 -10 -9 -9 -9 -9 -8 -7 -7 -7 -8 -8 -8 -8 -7 -7 -7 -7 -7 -7 -6 -6 -6
-10 -10 -10 -10 -11 -10 -10 -10 -10 -10 -10 -11 -10 -9 -9 -9 -9 -10 -10 -10 -10 -10 -10 -9 -10 -9 -9 -7 -7 -7 -7 -8 -8 -8 -7 -7 -7 -7 -7 -7 -7 -7 -7 -6
-10 -11 -11 -11 -10 -10 -10 -10 -11 -10 -10 -10 -10 -10 -9 -9 -9 -10 -11 -10 -10 -10 -9 -9 -10 -9 -8 -8 -8 -7 -7 -7 -7 -7 -8 -8 -7 -7 -7 -7 -7 -7 -7 -7
-11 -10 -10 -10 -10 -10 -10 -10 -10 -11 -10 -10 -9 -10 -9 -9 -9 -10 -10 -10 -9 -10 -9 -9 -9 -8 -7 -7 -8 -8 -8 -8 -8 -8 -8 -8 -7 -8 -8 -8 -8 -8 -8 -8
-10 -10 -10 -10 -10 -10 -10 -10 -10 -9 -9 -9 -9 -9 -9 -10 -9 -10 -10 -9 -9 -9 -9 -9 -8 -7 -7 -7 -7 -8 -9 -9 -9 -8 -8 -8 -8 -9 -9 -9 -9 -9 -9 -9
-10 -10 -10 -10 -10 -10 -10 -10 -9 -9 -9 -8 -8 -9 -9 -9 -9 -9 -9 -9 -8 -8 -8 -8 -7 -7 -7 -8 -8 -9 -9 -9 -9 -9 -10 -10 -10 -11 -11 -11 -11 -11 -11 -11
-10 -10 -10 -9 -9 -9 -9 -7 -7 -8 -7 -7 -8 -9 -9 -9 -9 -9 -8 -8 -9 -8 -9 -7 -7 -7 -8 -9 -9 -9 -9 -10 -10 -10 -11 -11 -12 -12 -12 -13 -13 -13 -14 -14
-9 -9 -8 -8 -8 -8 -8 -8 -8 -7 -7 -8 -9 -9 -9 -9 -8 -8 -8 -9 -8 -8 -8 -8 -8 -8 -9 -10 -10 -10 -11 -11 -11 -12 -12 -12 -12 -13 -13 -14 -14 -15 -15 -16
-8 -8 -7 -7 -7 -8 -7 -7 -8 -7 -8 -9 -9 -9 -9 -8 -8 -8 -8 -8 -7 -7 -8 -8 -9 -9 -10 -10 -11 -11 -11 -11 -12 -12 -13 -13 -14 -14 -15 -16 -16 -16 -17 -17
-8 -8 -8 -9 -9 -8 -8 -8 -8 -8 -9 -9 -9 -8 -8 -8 -7 -8 -7 -7 -7 -8 -8 -9 -9 -10 -10 -10 -11 -11 -11 -11 -12 -13 -13 -14 -15 -15 -16 -17 -17 -18 -18 -18
Height
2999 2997 2995 2994 2991 2990 2987 2985 2984 2983 2982 2982 2980 2979 2978 2979 2976 2976 2972 2970 2968 2962 2962 2966 2968 2972 2976 2978 2980 2984 2987 2991 2995 2999 3000 3002 3004 3005 3007 3006 3005 3000 2997 2988
2995 2994 2993 2991 2989 2988 2987 2984 2984 2983 2983 2983 2981 2979 2976 2977 2977 2977 2975 2972 2970 2966 2964 2967 2969 2970 2975 2976 2980 2983 2988 2992 2995 2998 3001 3002 3002 3004 3003 3002 3002 2997 2997 2988
2991 2991 2990 2989 2987 2986 2986 2984 2985 2984 2983 2983 2982 2979 2976 2977 2978 2976 2976 2972 2971 2966 2965 2967 2971 2974 2977 2981 2983 2985 2988 2991 2995 2998 3001 3002 3001 3001 3001 3001 2999 2995 2991 2984
2987 2987 2987 2987 2985 2984 2984 2983 2984 2984 2984 2983 2982 2980 2978 2977 2976 2976 2975 2973 2973 2972 2970 2973 2976 2977 2979 2983 2984 2986 2989 2992 2994 2996 2998 2998 2997 2996 2997 2997 2995 2993 2985 2982
2983 2983 2983 2984 2984 2984 2984 2983 2983 2983 2983 2983 2982 2980 2978 2978 2977 2974 2975 2976 2976 2974 2976 2979 2976 2977 2979 2982 2985 2987 2989 2992 2994 2995 2996 2996 2993 2993 2993 2990 2988 2985 2983 2979
2979 2980 2980 2981 2981 2983 2983 2982 2982 2982 2983 2983 2983 2983 2982 2980 2978 2976 2976 2977 2977 2978 2979 2977 2978 2980 2982 2984 2987 2988 2990 2991 2992 2993 2993 2992 2989 2988 2989 2987 2984 2982 2979 2976
2974 2976 2976 2978 2978 2980 2981 2981 2982 2981 2981 2982 2983 2983 2983 2982 2979 2979 2979 2980 2981 2982 2980 2979 2980 2980 2981 2982 2985 2986 2987 2989 2991 2991 2991 2991 2986 2985 2985 2984 2982 2979 2976 2972
2969 2971 2972 2974 2975 2977 2979 2980 2981 2981 2979 2980 2981 2981 2981 2982 2982 2982 2982 2982 2981 2979 2979 2980 2979 2979 2980 2982 2983 2983 2985 2988 2990 2990 2990 2988 2982 2982 2983 2982 2979 2977 2974 2971
2964 2966 2968 2970 2973 2975 2976 2978 2979 2979 2979 2979 2979 2979 2980 2980 2981 2981 2982 2981 2981 2980 2979 2979 2978 2980 2982 2983 2985 2985 2986 2987 2991 2991 2992 2990 2983 2983 2981 2981 2976 2974 2973 2973
2959 2961 2964 2966 2969 2972 2973 2975 2977 2977 2977 2978 2977 2978 2979 2980 2981 2981 2981 2981 2981 2979 2978 2978 2980 2982 2983 2984 2985 2986 2986 2987 2988 2989 2990 2986 2981 2979 2979 2981 2980 2974 2974 2974
2954 2956 2959 2962 2965 2969 2970 2972 2974 2975 2976 2978 2977 2977 2978 2979 2980 2980 2981 2982 2980 2981 2981 2982 2983 2983 2984 2985 2986 2986 2988 2988 2988 2987 2987 2983 2978 2978 2979 2978 2974 2973 2973 2973
2949 2952 2955 2959 2962 2965 2967 2969 2972 2973 2974 2976 2976 2976 2976 2977 2979 2981 2981 2983 2983 2983 2984 2984 2983 2984 2985 2985 2985 2986 2987 2987 2988 2988 2982 2978 2977 2977 2976 2975 2974 2973 2972 2971
2944 2947 2951 2955 2958 2962 2964 2966 2969 2971 2972 2974 2973 2975 2974 2974 2976 2979 2981 2983 2983 2984 2984 2984 2983 2984 2985 2985 2985 2984 2984 2984 2983 2981 2977 2976 2975 2976 2975 2975 2974 2973 2973 2972
2939 2943 2947 2951 2955 2958 2960 2962 2966 2969 2972 2971 2973 2973 2973 2973 2973 2976 2978 2981 2983 2984 2985 2985 2985 2985 2984 2984 2984 2983 2982 2981 2978 2977 2975 2973 2973 2974 2973 2973 2972 2972 2971 2970
2933 2938 2943 2948 2951 2954 2957 2959 2962 2966 2971 2970 2969 2970 2972 2972 2972 2974 2976 2979 2982 2983 2984 2984 2984 2984 2983 2982 2981 2978 2977 2976 2976 2974 2974 2973 2973 2972 2972 2972 2970 2970 2969 2967
2928 2933 2939 2944 2948 2950 2954 2956 2958 2962 2964 2968 2969 2970 2970 2969 2971 2972 2974 2977 2979 2981 2982 2982 2982 2983 2983 2980 2978 2977 2975 2975 2974 2975 2973 2973 2973 2972 2971 2971 2969 2968 2968 2968
2923 2928 2934 2939 2943 2946 2949 2953 2955 2957 2961 2965 2967 2966 2967 2968 2969 2971 2972 2974 2976 2978 2979 2979 2980 2980 2980 2978 2977 2976 2975 2974 2974 2974 2974 2973 2973 2973 2972 2971 2970 2968 2967 2966
2918 2923 2928 2934 2938 2942 2944 2948 2953 2954 2955 2961 2963 2963 2965 2966 2967 2969 2970 2972 2973 2975 2977 2977 2977 2978 2977 2975 2974 2974 2973 2972 2972 2972 2972 2971 2972 2971 2970 2969 2967 2966 2965 2964
2912 2918 2923 2927 2930 2933 2937 2946 2950 2954 2957 2956 2956 2959 2963 2963 2964 2966 2968 2970 2971 2973 2972 2974 2976 2974 2973 2971 2971 2971 2971 2970 2970 2970 2969 2969 2969 2967 2966 2965 2963 2961 2959 2958
2905 2911 2915 2917 2922 2930 2937 2942 2946 2949 2950 2951 2953 2956 2958 2962 2962 2964 2968 2968 2970 2969 2969 2970 2969 2967 2968 2967 2967 2968 2968 2969 2969 2968 2967 2965 2964 2963 2961 2959 2957 2956 2954 2952
2897 2903 2908 2914 2919 2927 2931 2935 2940 2942 2945 2946 2949 2953 2956 2959 2961 2963 2966 2966 2966 2966 2966 2966 2963 2961 2962 2962 2963 2964 2964 2965 2964 2964 2962 2960 2958 2957 2955 2953 2951 2950 2949 2947
2895 2899 2906 2912 2915 2922 2925 2930 2934 2937 2941 2941 2943 2948 2953 2956 2959 2960 2962 2963 2963 2961 2961 2962 2957 2956 2957 2957 2958 2959 2959 2959 2958 2958 2957 2956 2955 2953 2951 2949 2947 2946 2943 2941
2892 2900 2907 2910 2914 2917 2919 2922 2928 2931 2933 2937 2940 2944 2950 2954 2956 2956 2958 2959 2958 2958 2957 2954 2952 2952 2953 2953 2955 2955 2956 2956 2955 2955 2953 2951 2950 2948 2947 2946 2944 2943 2941 2939
2894 2899 2904 2907 2911 2914 2915 2917 2923 2929 2932 2934 2938 2943 2948 2950 2951 2952 2955 2955 2955 2954 2952 2950 2950 2951 2951 2952 2952 2952 2952 2951 2950 2949 2948 2947 2947 2945 2944 2942 2940 2938 2937 2935
2895 2900 2903 2905 2907 2909 2913 2917 2922 2927 2931 2934 2939 2944 2946 2947 2948 2949 2950 2950 2950 2948 2948 2948 2948 2948 2949 2949 2949 2949 2948 2948 2947 2946 2945 2943 2942 2940 2938 2936 2935 2933 2931 2930
2895 2898 2901 2904 2907 2909 2912 2916 2922 2927 2931 2935 2939 2942 2944 2945 2945 2946 2946 2946 2946 2946 2946 2946 2946 2947 2947 2948 2948 2948 2947 2947 2946 2945 2943 2942 2940 2938 2936 2934 2932 2930 2928 2926
2897 2898 2900 2903 2906 2909 2913 2917 2922 2927 2930 2934 2937 2939 2941 2942 2942 2942 2943 2943 2944 2944 2945 2946 2946 2947 2947 2948 2948 2948 2947 2946 2945 2943 2941 2939 2937 2935 2933 2931 2929 2927 2925 2923
Wind_Speed
23 19 13 13 16 17 18 18 14 9 8 12 10 13 16 22 5 10 20 26 14 10 10 11 10 14 8 8 11 13 9 4 3 2 7 4 6 7 10 5 5 8 9 7
20 16 11 11 14 17 17 16 13 10 8 12 15 17 15 14 24 19 22 17 13 8 10 8 11 16 17 14 13 11 10 5 6 6 7 5 3 7 11 9 11 10 3 8
17 13 11 11 15 17 16 14 8 8 6 7 12 15 11 5 6 14 20 20 8 6 14 16 12 14 10 11 12 12 9 7 6 3 3 5 8 11 13 13 7 10 16 27
15 13 11 11 13 16 12 11 8 7 4 7 11 9 11 9 15 8 8 5 8 7 10 14 14 15 17 12 11 9 8 6 4 3 7 8 9 12 16 19 24 20 23 24
13 12 11 9 10 9 9 9 8 8 9 10 12 14 4 9 13 7 3 7 9 10 8 10 8 8 7 5 5 7 5 3 5 11 9 7 15 18 9 13 14 24 23 23
13 12 12 10 10 7 7 7 7 8 9 9 10 9 11 7 11 12 8 6 5 2 4 4 4 3 1 1 2 3 3 4 7 5 7 13 16 4 12 15 12 18 20 27
14 14 14 14 10 11 9 6 8 9 11 11 10 10 11 10 11 11 9 4 2 3 4 5 5 6 7 9 10 11 10 8 5 5 8 2 2 10 12 12 12 14 19 12
14 15 16 17 13 12 12 9 10 12 14 12 12 13 11 10 6 5 5 5 5 8 7 6 4 9 4 5 7 6 10 8 3 2 3 14 7 6 3 20 14 16 16 10
15 16 16 17 17 13 15 12 11 11 12 6 9 10 11 11 7 5 4 6 7 6 7 6 2 2 3 1 2 6 6 6 8 5 2 3 5 10 6 19 13 6 11 12
15 17 17 17 17 16 18 14 11 13 11 5 6 8 7 9 8 7 6 6 6 9 9 5 2 1 2 1 1 3 6 4 11 16 8 9 17 18 19 8 8 11 8 10
16 16 16 17 16 15 18 15 14 14 14 9 10 8 8 9 8 7 5 4 3 5 5 5 2 1 1 2 2 3 3 4 4 5 6 8 8 11 8 10 14 15 12 11
17 17 17 17 14 15 19 19 14 13 15 10 6 4 6 10 11 7 5 2 2 5 5 7 3 2 2 2 2 4 3 2 9 10 7 15 17 14 8 6 12 12 12 13
19 19 19 18 15 16 18 19 18 17 17 11 9 6 12 12 12 12 12 5 4 6 8 10 4 1 3 3 3 8 5 12 9 13 7 12 12 10 9 8 11 14 15 17
20 20 19 17 18 19 18 25 16 16 17 16 7 6 5 8 13 15 15 13 10 9 5 10 10 8 5 6 9 14 15 12 8 1 8 9 11 10 10 12 15 19 19 11
21 22 16 18 16 17 20 19 16 14 15 6 5 4 6 12 6 12 14 15 14 12 11 11 13 12 8 6 11 11 11 9 8 6 10 9 7 8 7 8 8 10 14 10
23 19 21 18 18 18 19 19 21 18 18 19 21 10 7 7 10 9 13 13 12 13 10 13 14 11 10 6 6 11 9 7 4 4 2 4 3 1 1 3 2 3 4 5
26 25 22 25 23 22 23 23 17 21 16 21 17 19 17 13 13 10 10 15 16 14 12 14 14 12 6 12 15 15 10 7 5 4 6 5 3 6 8 6 7 9 12 15
26 24 24 24 27 26 28 25 21 2 24 20 11 8 8 12 12 11 15 14 14 17 12 16 15 11 9 7 7 9 14 10 9 9 9 10 11 13 13 14 14 14 14 15
25 23 23 23 27 32 32 25 26 23 23 13 14 15 12 10 17 15 16 13 15 14 18 20 15 15 10 12 12 11 12 11 11 11 10 11 16 18 19 20 21 21 22 22
24 23 26 28 31 30 27 25 24 24 28 27 21 14 17 13 9 12 14 9 10 6 13 16 20 23 21 22 22 19 15 15 15 16 18 20 20 21 22 23 24 23 22 23
30 31 27 27 29 28 26 17 20 15 13 20 26 23 14 13 11 9 11 5 6 7 12 10 7 16 20 22 23 21 20 19 19 18 18 19 20 21 20 20 21 22 22 22
35 37 28 39 29 15 9 16 15 11 12 9 16 24 21 18 13 12 14 9 8 6 9 10 7 17 14 11 12 13 14 14 14 14 14 14 15 16 16 17 19 20 21 22
32 29 38 17 17 9 12 15 18 16 14 21 17 22 24 19 14 9 9 7 5 4 6 5 10 10 10 12 12 11 9 10 10 10 10 11 10 10 10 10 11 11 12 12
33 19 14 8 8 11 13 24 27 25 13 14 16 19 17 13 12 7 7 9 5 5 5 7 9 8 7 7 6 7 8 8 9 9 9 9 9 10 10 10 10 10 9 9
13 10 10 9 9 16 17 19 21 18 15 19 22 17 12 12 5 6 6 6 5 6 5 6 4 6 5 5 4 4 6 7 8 10 12 13 14 15 16 16 15 15 15 14
9 8 11 15 17 15 18 19 23 21 26 25 19 9 6 7 4 6 6 5 5 4 5 3 3 2 2 4 4 4 6 8 10 12 14 15 16 17 17 17 17 17 17 17
5 7 12 16 17 20 22 25 25 29 29 24 9 8 6 5 6 6 6 5 5 3 0 1 1 1 3 3 4 6 9 11 13 15 16 18 19 19 19 19 19 18 18 18
Wind_Direction
318 312 305 309 317 321 325 327 335 321 326 328 293 307 283 242 250 307 316 304 342 350 49 111 156 140 124 140 170 171 180 128 136 296 257 259 241 272 277 241 323 283 302 272
315 304 289 299 316 314 319 322 334 323 299 319 334 318 283 274 266 304 319 295 339 342 31 102 100 126 157 132 153 138 138 112 122 106 99 160 221 310 292 283 302 257 275 269
308 295 274 285 302 312 314 321 325 323 323 329 326 331 322 297 287 278 293 291 8 28 65 90 95 102 95 90 96 102 115 97 83 106 349 319 288 306 306 284 268 298 282 294
299 287 268 270 303 309 319 326 315 306 273 339 358 347 312 289 323 239 275 319 45 43 74 82 89 92 87 82 86 74 94 77 25 4 346 304 318 314 313 282 272 276 284 309
285 274 256 254 284 314 338 330 315 302 285 308 327 18 19 336 310 329 118 352 42 51 64 78 80 78 83 93 74 51 48 69 348 321 328 300 302 305 315 302 282 275 282 293
272 261 244 243 258 284 313 337 315 288 272 288 318 341 8 30 21 69 85 66 57 79 38 17 349 346 83 124 309 324 312 319 319 293 308 304 300 171 330 324 291 284 275 303
262 252 237 230 240 256 277 306 319 306 280 280 283 292 321 346 35 23 48 41 341 326 358 357 342 318 305 294 308 300 287 295 313 296 320 261 312 277 300 296 318 310 299 299
255 248 233 227 230 245 265 274 285 288 303 289 274 271 287 306 336 360 1 23 21 22 359 339 359 11 14 55 39 337 251 256 276 286 271 290 328 58 332 352 303 325 317 317
252 242 231 227 229 235 252 268 272 274 287 316 292 270 268 288 302 314 338 2 2 353 2 0 67 67 330 30 55 1 40 238 237 264 272 270 284 267 298 324 295 309 318 320
245 240 230 224 223 230 242 253 260 269 278 307 309 285 282 276 286 290 305 293 317 355 355 5 25 345 160 23 89 339 331 304 242 250 255 265 279 278 280 291 287 312 305 285
240 229 224 220 215 222 237 242 246 262 274 281 283 279 280 264 277 275 299 298 324 347 21 19 13 335 222 255 240 311 308 297 261 228 234 259 270 310 296 271 298 314 299 272
224 220 216 213 212 217 234 243 237 249 263 266 288 291 301 259 244 242 249 246 48 41 31 1 286 242 270 289 305 299 256 297 292 273 266 268 295 312 333 297 270 285 282 274
218 214 211 212 216 216 228 244 242 239 258 281 282 276 255 250 232 234 235 237 223 82 29 360 8 244 295 301 291 307 269 310 286 301 222 251 268 285 279 267 273 263 262 252
217 209 210 216 215 214 222 234 243 238 251 266 261 266 298 258 245 233 224 229 244 276 316 354 2 3 336 305 301 298 300 309 335 41 186 203 250 264 238 250 243 253 263 259
210 200 210 209 213 213 219 228 236 244 237 255 191 104 306 245 248 229 228 239 250 269 290 305 313 338 323 315 299 297 306 276 286 292 309 256 228 216 231 242 247 273 264 249
203 204 204 206 218 212 208 228 229 229 232 246 251 277 305 283 239 227 215 231 246 249 263 289 289 305 292 300 283 312 321 296 323 311 154 157 135 80 222 253 278 269 271 279
207 206 212 206 211 210 211 220 245 237 230 227 255 266 266 250 225 230 228 226 229 240 260 267 278 290 278 270 274 295 291 267 282 251 221 244 276 307 293 277 282 280 285 290
213 216 217 216 215 221 220 220 212 326 216 216 230 226 240 219 214 227 230 230 231 229 241 258 272 266 272 271 267 293 281 260 265 266 258 270 279 287 293 287 286 286 286 283
216 221 223 210 213 214 223 222 226 229 207 210 228 227 235 232 229 239 230 229 220 229 235 245 257 259 236 250 264 272 276 271 271 263 257 274 290 292 288 284 284 286 287 284
218 214 210 215 215 211 218 220 214 217 209 220 223 224 217 221 219 213 213 222 216 240 248 250 253 249 248 254 263 266 264 273 275 280 283 290 293 289 288 288 287 288 287 286
179 191 205 206 204 199 196 183 193 183 200 226 227 225 220 205 207 212 199 221 217 230 242 205 238 243 251 251 257 261 263 267 272 275 281 288 291 292 289 287 289 290 289 289
187 194 188 159 170 175 162 165 172 190 198 213 216 213 216 217 214 222 205 215 226 225 208 205 243 254 251 252 253 251 262 278 286 289 290 288 285 285 290 290 287 287 289 291
189 158 156 172 159 179 155 165 177 192 195 222 221 198 200 206 231 193 186 217 249 202 207 229 246 263 257 253 260 269 276 281 287 295 300 302 304 302 299 298 296 294 294 293
145 153 140 159 181 177 181 191 199 199 216 208 188 180 191 217 186 164 194 210 211 227 228 240 256 241 235 242 264 288 296 303 311 320 330 336 335 332 330 327 325 322 315 313
120 137 167 165 178 176 180 177 185 193 187 173 164 175 197 189 185 188 190 190 217 223 236 258 254 233 237 257 280 308 324 341 351 345 337 332 330 327 325 324 322 321 320 318
145 142 160 169 161 159 167 173 175 171 163 153 157 164 180 190 206 199 201 206 215 234 219 205 207 239 317 331 338 358 352 344 339 335 331 327 322 319 316 314 313 311 310 309
181 162 166 170 168 166 170 170 174 176 165 167 154 171 179 195 214 209 206 216 208 202 237 327 315 32 67 43 21 4 351 338 330 325 322 317 314 310 307 305 304 302 302 303